Weather History for VIAR - November, 2013

Change the Weather History Date:

Thursday, November 14, 2013

  Actual Average Record
Temperature  
Mean Temperature 62 °F -  
Max Temperature 77 °F 78 °F 84 °F (1996)
Min Temperature 47 °F 51 °F 44 °F (1996)
Degree Days  
Heating Degree Days 3    
Growing Degree Days 12 (Base 50)    
Moisture  
Dew Point 52 °F    
Average Humidity 78    
Maximum Humidity 100    
Minimum Humidity 36    
Precipitation  
Precipitation 0.00 in - - ()
Sea Level Pressure  
Sea Level Pressure 30.00 in    
Wind  
Wind Speed 1 mph ()    
Max Wind Speed 7 mph    
Max Gust Speed -    
Visibility 1.6 miles    
Events      
Averages and records for this station are not official NWS values.
T = Trace of Precipitation, MM = Missing Value Source: Averaged Metar Reports

Daily Weather History Graph

Daily Weather History Graph

Search for Another Location

Airport or City:

Trip Planner

Search our weather history database for the weather conditions in past years. The results will help you decide how hot, cold, wet, or windy it might be!

Date:

Astronomy

Nov. 14, 2013 Rise Set
Actual Time 6:57 AM IST 5:32 PM IST
Civil Twilight 6:32 AM IST 5:57 PM IST
Nautical Twilight 6:02 AM IST 6:27 PM IST
Astronomical Twilight 5:33 AM IST 6:56 PM IST
Moon 3:27 PM IST (11/14) 3:36 AM IST (11/14)
Length of Visible Light 11h 25m
Length of Day
10h 34m
Waxing Gibbous, 89% of the Moon is Illuminated
Nov 14
Waxing Gibbous
Nov 17
Full
Nov 26
Last Quarter
Dec 3
New
Dec 9
First Quarter

Hourly Weather History & Observations

Time (IST) Temp. Dew Point Humidity Pressure Visibility Wind Dir Wind Speed Gust Speed Precip Events Conditions
12:00 AM 55.4 °F 53.6 °F 94% 29.98 in 0.9 mi Calm Calm - N/A   Haze
12:30 AM 53.6 °F 53.6 °F 100% 29.98 in 0.9 mi Calm Calm - N/A   Haze
1:30 AM 57.2 °F 51.8 °F 82% 29.98 in 0.8 mi Calm Calm - N/A   Haze
2:00 AM 51.8 °F 51.8 °F 100% 29.98 in 0.8 mi Calm Calm - N/A   Mist
2:30 AM 50 °F 50 °F 100% 29.98 in 1 mi Calm Calm - -   Mist
2:30 AM 50.0 °F 50.0 °F 100% 29.98 in 0.7 mi Calm Calm - N/A   Mist
3:00 AM 50.0 °F 50.0 °F 100% 29.95 in 0.7 mi Calm Calm - N/A   Mist
3:30 AM 50.0 °F 50.0 °F 100% 29.95 in 0.7 mi Calm Calm - N/A   Mist
4:00 AM 51.8 °F 51.8 °F 100% 29.95 in 0.7 mi Calm Calm - N/A   Mist
5:00 AM 51.8 °F 51.8 °F 100% 29.95 in 0.7 mi Calm Calm - N/A   Mist
5:30 AM 50 °F 50 °F 100% 29.98 in 1 mi Calm Calm - -   Mist
5:30 AM 50.0 °F 50.0 °F 100% 29.98 in 0.7 mi Calm Calm - N/A   Mist
6:00 AM 48.2 °F 48.2 °F 100% 29.98 in 0.7 mi Calm Calm - N/A   Mist
6:30 AM 50.0 °F 50.0 °F 100% 29.98 in 0.7 mi Calm Calm - N/A   Mist
7:00 AM 50.0 °F 50.0 °F 100% 30.01 in 0.6 mi Calm Calm - N/A   Mist
7:30 AM 50.0 °F 50.0 °F 100% 30.01 in 0.6 mi Calm Calm - N/A   Mist
8:00 AM 51.8 °F 51.8 °F 100% 30.04 in 0.6 mi Calm Calm - N/A   Mist
8:30 AM 55 °F 55 °F 100% 30.04 in 1 mi Calm Calm - -   Mist
8:30 AM 55.4 °F 55.4 °F 100% 30.04 in 0.7 mi Calm Calm - N/A   Mist
9:00 AM 57.2 °F 57.2 °F 100% 30.04 in 0.9 mi Calm Calm - N/A   Mist
9:30 AM 60.8 °F 60.8 °F 100% 30.06 in 1.2 mi Variable 3.5 mph - N/A   Mist
10:00 AM 62.6 °F 57.2 °F 82% 30.06 in 1.2 mi Variable 2.3 mph - N/A   Mist
10:30 AM 66.2 °F 55.4 °F 68% 30.06 in 1.9 mi Variable 1.2 mph - N/A   Mist
11:00 AM 68.0 °F 55.4 °F 64% 30.06 in 1.9 mi Variable 3.5 mph - N/A   Mist
11:30 AM 69 °F 55 °F 51% 30.04 in 1 mi 1.2 mph - -   Haze
11:30 AM 69.8 °F 55.4 °F 60% 30.06 in 2.5 mi Variable 1.2 mph - N/A   Mist
12:30 PM 73.4 °F 51.8 °F 47% 30.04 in 3.7 mi Variable 2.3 mph - N/A   Mist
1:00 PM 75.2 °F 51.8 °F 44% 30.04 in 3.7 mi Variable 3.5 mph - N/A   Unknown
2:00 PM 77.0 °F 50.0 °F 39% 30.01 in 3.7 mi West 6.9 mph - N/A   Unknown
2:30 PM 77.0 °F 48.2 °F 36% 29.98 in 3.7 mi NW 6.9 mph - N/A   Unknown
3:00 PM 77.0 °F 48.2 °F 36% 29.98 in 3.7 mi NW 6.9 mph - N/A   Unknown
3:30 PM 77.0 °F 48.2 °F 36% 29.98 in 3.7 mi WNW 5.8 mph - N/A   Unknown
4:00 PM 77.0 °F 48.2 °F 36% 29.98 in 3.7 mi WNW 6.9 mph - N/A   Unknown
4:30 PM 75.2 °F 48.2 °F 38% 29.95 in 3.7 mi West 5.8 mph - N/A   Unknown
5:00 PM 71.6 °F 50.0 °F 46% 29.95 in 3.1 mi Variable 1.2 mph - N/A   Haze
5:30 PM 69 °F 50 °F 40% 29.95 in 2 mi Calm Calm - -   Haze
5:30 PM 69.8 °F 50.0 °F 49% 29.95 in 2.5 mi Calm Calm - N/A   Haze
6:00 PM 68.0 °F 50.0 °F 52% 29.98 in 2.2 mi Calm Calm - N/A   Haze
7:00 PM 64.4 °F 51.8 °F 64% 29.98 in 1.9 mi Calm Calm - N/A   Haze
7:30 PM 62.6 °F 51.8 °F 68% 29.98 in 1.6 mi Calm Calm - N/A   Haze
8:00 PM 60.8 °F 51.8 °F 72% 30.01 in 1.6 mi Calm Calm - N/A   Haze
8:30 PM 60 °F 52 °F 67% 30.00 in 1 mi Calm Calm - -   Haze
8:30 PM 60.8 °F 51.8 °F 72% 30.01 in 1.6 mi Calm Calm - N/A   Haze
9:00 PM 59.0 °F 53.6 °F 82% 30.01 in 1.6 mi Calm Calm - N/A   Mist
9:30 PM 57.2 °F 51.8 °F 82% 30.01 in 1.6 mi Calm Calm - N/A   Haze
10:00 PM 57.2 °F 51.8 °F 82% 30.01 in 1.6 mi Calm Calm - N/A   Haze
10:30 PM 55.4 °F 51.8 °F 88% 30.01 in 1.6 mi Calm Calm - N/A   Mist
11:00 PM 53.6 °F 53.6 °F 100% 30.04 in 1.6 mi Calm Calm - N/A   Haze
11:30 PM 55 °F 55 °F 98% 30.03 in 1 mi Calm Calm - -   Mist
11:30 PM 55.4 °F 55.4 °F 100% 30.01 in 1.2 mi Calm Calm - N/A   Mist